Location: ?????????
(38.5999°N, 22.7695°E)
Time: 09:22:10
(UTC+00:00)

Cosmos 2154 Rocket - Pass Details

Date: 23 August 2024
Orbit: 964 x 997 km, 82.9° (Epoch: 07 September)

Event Time Altitude Azimuth Distance (km) Brightness Sun altitude
Rises 01:10:14 0° 3° (N) 3,664 7.7 -27.9°
Reaches altitude 10° 01:13:07 10° 15° (NNE) 2,711 7.0 -27.5°
Maximum altitude 01:18:26 29° 74° (ENE) 1,682 5.7 -26.7°
Drops below altitude 10° 01:23:43 10° 133° (SE) 2,697 6.4 -26.0°
Sets 01:26:33 0° 145° (SE) 3,642 6.9 -25.5°
